This is the latest recevied weather packets stored in our database for station/object DJ2RF. If no packets are shown the sender has not sent any weather packets the latest 10 day(s).
| Time | Temp. | Humidity | Pressure | Rain* | Wind** | Luminosity | Snow |
|---|---|---|---|---|---|---|---|
| 1777708221 | 13.33° C | 64% | 1024.6 hPa | 0 mm | - | - | - |
| 1777707681 | 12.22° C | 64% | 1024.7 hPa | 0 mm | - | - | - |
| 1777707128 | 11.11° C | 66% | 1024.7 hPa | 0 mm | - | - | - |
| 1777706628 | 10.56° C | 69% | 1024.7 hPa | 0 mm | - | - | - |
| 1777706066 | 10° C | 69% | 1024.7 hPa | 0 mm | - | - | - |
| 1777705556 | 10° C | 70% | 1024.8 hPa | 0 mm | - | - | - |
| 1777705076 | 9.44° C | 74% | 1024.8 hPa | 0 mm | - | - | - |
| 1777704476 | 8.89° C | 76% | 1024.8 hPa | 0 mm | - | - | - |
| 1777703881 | 8.33° C | 76% | 1024.9 hPa | 0 mm | - | - | - |
| 1777703301 | 7.78° C | 77% | 1025 hPa | 0 mm | - | - | - |
| 1777702808 | 7.78° C | 78% | 1025 hPa | 0 mm | - | - | - |
| 1777702327 | 7.22° C | 78% | 1025 hPa | 0 mm | - | - | - |
| 1777701756 | 6.67° C | 79% | 1025 hPa | 0 mm | - | - | - |
| 1777701276 | 6.67° C | 79% | 1025 hPa | 0 mm | - | - | - |
| 1777700696 | 6.11° C | 79% | 1025 hPa | 0 mm | - | - | - |
| 1777700166 | 6.11° C | 79% | 1025 hPa | 0 mm | - | - | - |
| 1777699666 | 6.11° C | 78% | 1024.9 hPa | 0 mm | - | - | - |
| 1777699076 | 5.56° C | 77% | 1024.9 hPa | 0 mm | - | - | - |
| 1777698556 | 5.56° C | 77% | 1025 hPa | 0 mm | - | - | - |
| 1777698031 | 5.56° C | 77% | 1025 hPa | 0 mm | - | - | - |
| 1777697476 | 5° C | 78% | 1025 hPa | 0 mm | - | - | - |
| 1777696921 | 5° C | 78% | 1024.9 hPa | 0 mm | - | - | - |
| 1777696330 | 5° C | 76% | 1024.8 hPa | 0 mm | - | - | - |
| 1777695846 | 5° C | 76% | 1024.8 hPa | 0 mm | - | - | - |
| 1777695276 | 5° C | 76% | 1024.8 hPa | 0 mm | - | - | - |
* Rain latest hour (hover to see other rain measurements)
** Current wind speed in m/s (hover to see current wind gust speed)